Stockton, CA

10:38 PM PDT on April 21, 2018 (GMT -0700)
Stockton Metro

Weather History for KSCK - January, 2013

Change the Weather History Date:

Thursday, January 3, 2013

  Actual Average Record
Temperature  
Mean Temperature 41 °F -  
Max Temperature 54 °F 52 °F 66 °F (2007)
Min Temperature 27 °F 37 °F 25 °F (1949)
Degree Days  
Heating Degree Days 24 20  
Month to date heating degree days 71 60  
Since 1 July heating degree days 975 1120  
Cooling Degree Days 0 0  
Month to date cooling degree days 0 0  
Year to date cooling degree days 0 0  
Moisture  
Dew Point 34 °F    
Average Humidity 77    
Maximum Humidity 100    
Minimum Humidity 54    
Precipitation  
Precipitation 0.00 in 0.08 in 0.59 in (1995)
Month to date precipitation 0.00 0.25  
Year to date precipitation 0.00 0.25  
Since 1 July precipitation 7.12  
Snow  
Snow 0.00 in - - ()
Month to date snowfall 0.0  
Since 1 July snowfall 0.0  
Snow Depth 0.00 in    
Sea Level Pressure  
Sea Level Pressure 30.23 in    
Wind  
Wind Speed 2 mph (West)    
Max Wind Speed 8 mph    
Max Gust Speed 15 mph    
Visibility 4 miles    
Events Fog    
T = Trace of Precipitation, MM = Missing Value Source: NWS Daily Summary

Daily Weather History Graph

Daily Weather History Graph

Search for Another Location

Airport or City:

Astronomy

Jan. 03, 2013 Rise Set
Actual Time 7:21 AM PST 4:58 PM PST
Civil Twilight 6:51 AM PST 5:27 PM PST
Nautical Twilight 6:18 AM PST 6:00 PM PST
Astronomical Twilight 5:47 AM PST 6:32 PM PST
Moon 11:32 PM PST (1/3) 10:42 AM PST (1/3)
Length of Visible Light 10h 36m
Length of Day
9h 37m
Waning Gibbous, 64% of the Moon is Illuminated
Jan 3
Waning Gibbous
Jan 4
Last Quarter
Jan 11
New
Jan 18
First Quarter
Jan 26
Full

Hourly Weather History & Observations

Time (PST) Temp. Windchill Dew Point Humidity Pressure Visibility Wind Dir Wind Speed Gust Speed Precip Events Conditions
12:55 AM 32.0 °F - 30.9 °F 96% 30.18 in 5.0 mi Calm Calm - N/A   Clear
1:55 AM 30.9 °F - 30.9 °F 100% 30.19 in 3.0 mi Calm Calm - N/A   Clear
2:55 AM 30.0 °F - 28.9 °F 96% 30.19 in 4.0 mi Calm Calm - N/A   Clear
3:55 AM 30.0 °F 26.5 °F 28.9 °F 96% 30.19 in 4.0 mi ENE 3.5 mph - N/A   Clear
4:55 AM 30.9 °F 24.3 °F 30.0 °F 96% 30.19 in 4.0 mi East 6.9 mph - N/A   Clear
5:55 AM 28.9 °F 25.2 °F 28.9 °F 100% 30.19 in 5.0 mi SE 3.5 mph - N/A   Clear
6:55 AM 28.0 °F - 28.0 °F 100% 30.22 in 5.0 mi Calm Calm - N/A   Clear
7:55 AM 28.0 °F 22.8 °F 28.0 °F 100% 30.22 in 3.0 mi SW 4.6 mph - N/A   Clear
8:47 AM 33.8 °F 30.8 °F 33.8 °F 100% 30.23 in 5.0 mi South 3.5 mph - N/A   Scattered Clouds
8:55 AM 35.1 °F 32.2 °F 34.0 °F 96% 30.23 in 0.2 mi SE 3.5 mph - N/A Fog Fog
9:16 AM 32.0 °F - 32.0 °F 100% 30.24 in 0.2 mi Calm Calm - N/A Fog Fog
9:55 AM 35.1 °F - 35.1 °F 100% 30.26 in 0.2 mi Calm Calm - N/A Fog Fog
10:23 AM 37.4 °F - 37.4 °F 100% 30.27 in 1.0 mi Calm Calm - N/A   Mist
10:37 AM 39.2 °F - 37.4 °F 93% 30.27 in 3.0 mi Calm Calm - N/A   Scattered Clouds
10:55 AM 42.1 °F - 39.0 °F 89% 30.26 in 3.0 mi Calm Calm - N/A   Clear
11:55 AM 48.0 °F - 39.0 °F 71% 30.24 in 5.0 mi Calm Calm - N/A   Haze
12:55 PM 51.1 °F - 39.9 °F 66% 30.23 in 6.0 mi Calm Calm - N/A   Haze
1:55 PM 53.1 °F - 39.9 °F 61% 30.22 in 6.0 mi Calm Calm - N/A   Haze
2:55 PM 53.1 °F - 37.9 °F 57% 30.22 in 7.0 mi Calm Calm - N/A   Clear
3:55 PM 53.1 °F - 39.0 °F 59% 30.22 in 7.0 mi West 4.6 mph - N/A   Clear
4:55 PM 48.9 °F - 39.9 °F 71% 30.22 in 6.0 mi West 5.8 mph - N/A   Haze
5:55 PM 45.0 °F 40.6 °F 39.0 °F 80% 30.24 in 7.0 mi WNW 8.1 mph - N/A   Clear
6:55 PM 43.0 °F 40.3 °F 37.9 °F 82% 30.24 in 7.0 mi NW 4.6 mph - N/A   Clear
7:55 PM 41.0 °F 39.0 °F 37.0 °F 86% 30.26 in 7.0 mi WNW 3.5 mph - N/A   Clear
8:55 PM 37.0 °F 33.3 °F 35.1 °F 93% 30.26 in 6.0 mi West 4.6 mph - N/A   Clear
9:55 PM 35.1 °F 30.1 °F 34.0 °F 96% 30.27 in 5.0 mi WSW 5.8 mph - N/A   Clear
10:55 PM 36.0 °F 33.3 °F 35.1 °F 97% 30.27 in 4.0 mi West 3.5 mph - N/A   Clear
11:55 PM 34.0 °F 29.8 °F 33.1 °F 96% 30.27 in 2.5 mi West 4.6 mph - N/A   Clear